Regional Weather Roundup
Issued by NWS

Home | Current Version | Previous Version | Graphics & Text | Print | Product List | Glossary On
Versions: 1 2 3 4 5 6 7 8 9 10 11 12 13 14 15 16 17 18 19 20 21 22 23 24 25 26 27 28 29 30 31 32 33 34 35 36 37 38 39 40 41 42 43 44 45 46 47 48 49 50
000
ASUS44 KMEG 010310
RWRTN
TENNESSEE HOURLY STATE WEATHER ROUNDUP
NATIONAL WEATHER SERVICE MEMPHIS TN
1000 PM CDT TUE MAR 31 2015

TNZ002-004-019-021-049-052-054-088>092-010400-
WEST TENNESSEE

CITY           SKY/WX    TMP DP  RH WIND       PRES   REMARKS
MEMPHIS INTL   MOCLDY    68  60  75 SW6       29.94R
NWS MEMPHIS      N/A     69 N/A N/A MISG        N/A
JACKSON        CLOUDY    62  55  77 W10       29.97R
DYERSBURG      CLOUDY    59  45  58 SW3       29.97R
UNION CITY     PTCLDY    57  57 100 NE5       29.95R
PARIS          CLEAR     55  46  71 N3        29.96R
LEXINGTON      CLOUDY    66  55  68 S12       29.97R
SAVANNAH       CLOUDY    59  59 100 CALM      30.00R
$$

TNZ008-025-027-028-033-062-065-066-010400-
NORTH MIDDLE TENNESSEE

CITY           SKY/WX    TMP DP  RH WIND       PRES   REMARKS
NASHVILLE      PTCLDY    66  40  38 N9        29.94R
CLARKSVILLE    CLEAR     61  37  41 N12       29.96R
SMYRNA         PTCLDY    60  45  57 N5        29.95R
COOKEVILLE     CLEAR     52  45  76 CALM        N/A
CROSSVILLE     CLEAR     63  38  39 NW7       29.96R
$$

TNZ061-075-076-078-094-096-097-010400-
SOUTH MIDDLE TENNESSEE

CITY           SKY/WX    TMP DP  RH WIND       PRES   REMARKS
FAYETTEVILLE   CLEAR     63  55  77 SW7       29.94F
TULLAHOMA      CLEAR     61  54  77 SW6       29.95S
WINCHESTER     CLEAR     64  57  77 W6        29.95S
MCMINNVILLE    PTCLDY    57  46  67 W3        29.95R
COLUMBIA       PTCLDY    66  59  77 CALM      29.93R
SHELBYVILLE    PTCLDY    64  54  68 NW3       29.95S
$$

TNZ017-018-042-046-047-010400-
NORTHEAST TENNESSEE

CITY           SKY/WX    TMP DP  RH WIND       PRES   REMARKS
TRI CITIES     CLEAR     63  38  39 W8        29.88R
ELIZABETHTON   CLEAR     54  45  71 CALM      29.88R
$$

TNZ012-013-036-069-073-074-010400-
CENTRAL EAST TENNESSEE

CITY           SKY/WX    TMP DP  RH WIND       PRES   REMARKS
KNOXVILLE      PTCLDY    63  42  46 SW7       29.90R
OAK RIDGE      CLEAR     65  41  41 W5        29.92R
GATLINBURG     CLEAR     64  41  42 SW5       29.89S
MORRISTOWN     CLEAR     64  39  39 W5        29.91R
$$

TNZ083-085-099-010400-
SOUTHEAST TENNESSEE

CITY           SKY/WX    TMP DP  RH WIND       PRES   REMARKS
CHATTANOOGA    PTCLDY    66  57  72 SW6       29.93S
$$

SKY/WX REPORTED AS FAIR MEANS FEW OR NO CLOUDS BELOW
12 THOUSAND FEET.



USA.gov is the U.S. government's official web portal to all federal, state and local government web resources and services.